User: anonymous
Location: West Cummington
(42.4920°N, 72.9680°W)
Time: 17:01:45
(UTC-04:00)
Language:

Cosmos 841 Rocket - Orbit

View from above orbital plane
View from above orbital plane
View from above satellite
View from above satellite

Ground track
Ground track

The orbit data is extracted from the following two-line orbital elements,

1 09023U 76069B   14244.40932609  .00000093  00000-0  38640-4 0  4756
2 09023 074.0453 178.4290 0018661 238.2888 121.6448 14.39182097998096
Epoch (UTC): 01 September 2014 09:49:25
Eccentricity: 0.0018661
inclination: 74.0453°
perigee height: 748 km
apogee height: 774 km
right ascension of ascending node: 178.4290°
argument of perigee: 238.2888°
revolutions per day: 14.39182097
mean anomaly at epoch: 121.6448°
orbit number at epoch: 99809

The dashed part of the orbit path shows where the satellite is in the earth's shadow,  

DLR